Regional Weather Roundup
Issued by NWS

Home | Current Version | Previous Version | Text Only | Print | Product List | Glossary On
Versions: 1 2 3 4 5 6 7 8 9 10 11 12 13 14 15 16 17 18 19 20 21 22 23 24 25 26 27 28
000
ASUS45 KCYS 241410
RWRWY

WYOMING REGIONAL WEATHER ROUNDUP
NATIONAL WEATHER SERVICE CHEYENNE WY
800 AM MDT THU MAY 24 2018

NOTE:  "FAIR" INDICATES FEW OR NO CLOUDS BELOW 12,000 FEET
WITH NO SIGNIFICANT WEATHER AND/OR OBSTRUCTIONS TO VISIBILITY.

WYZ001-241500-
YELLOWSTONE NATIONAL PARK

CITY           SKY/WX    TMP DP  RH WIND       PRES   REMARKS
LK YELLOWSTONE NOT AVBL
W YELLOWSTONE  NOT AVBL

$$
WYZ002>013-054>058-071-098>099-241500-
NORTHERN WYOMING

CITY           SKY/WX    TMP DP  RH WIND       PRES   REMARKS
JACKSON        CLOUDY    45  43  93 CALM      30.19S
CODY           FAIR      59  46  62 SE8       30.04R
GREYBULL       FAIR      56  52  86 E5        29.99S
WORLAND        FAIR      57  51  80 CALM      30.00S
SHERIDAN       FAIR      58  53  84 CALM      29.95S
BUFFALO        FAIR      59  49  69 SE7       30.01R
GILLETTE       FAIR      62  50  64 SW7       29.98R
NEWCASTLE      FAIR      59  43  55 S6        30.02R

$$
WYZ014>020-022>026-101>103-241500-
CENTRAL WYOMING

CITY           SKY/WX    TMP DP  RH WIND       PRES   REMARKS
BIG PINEY      CLOUDY    44  42  93 E3        30.22S
PINEDALE       CLOUDY    43  41  93 CALM      30.24R
DUBOIS         CLOUDY    50  39  66 NW5       30.16R
LANDER         FAIR      53  48  83 CALM      30.09R
RIVERTON       FAIR      56  45  66 SW10      30.09R
CASPER         FAIR      58  44  60 SW14      30.08R
DOUGLAS        FAIR      60  46  59 CALM      30.07R

$$
WYZ021-027>030-104>119-241500-
SOUTHERN WYOMING

CITY           SKY/WX    TMP DP  RH WIND       PRES   REMARKS
EVANSTON       FAIR      50  40  68 SW6       30.24R
KEMMERER       FAIR      46  39  76 CALM      30.24R
FORT BRIDGER   FAIR      55  38  52 SW9       30.26R
ROCK SPRINGS   FAIR      52  39  61 CALM      30.22R
DIXON          FAIR      49  35  59 S5        30.26R
RAWLINS        FAIR      57  38  48 W14       30.21R
SARATOGA       FAIR      52  36  54 S5        30.24S
LARAMIE        FAIR      53  38  56 W7        30.23R
CHEYENNE       FAIR      60  41  49 W5        30.16S
TORRINGTON     FAIR      56  52  86 CALM      30.05S
PINE BLUFFS    FAIR      57  48  72 W7        30.13R

$$




USA.gov is the U.S. government's official web portal to all federal, state and local government web resources and services.